Tracking 29068 objects as of 19-Jul-2024
HD Live streaming from Space Station
objects crossing your sky now

STARLINK-30224

Track STARLINK-30224 now!
10-day predictions
STARLINK-30224 is classified as:


NORAD ID: 57416
Int'l Code: 2023-102N
Perigee: 564.7 km
Apogee: 567.8 km
Inclination: 43.0 °
Period: 95.8 minutes
Semi major axis: 6937 km
RCS: Unknown
Launch date: July 20, 2023
Source: United States (US)
Launch site: AIR FORCE WESTERN TEST RANGE (AFWTR)
Your satellite tracking list
Your tracking list is empty




NASA's NSSDC Master Catalog

Two Line Element Set (TLE):
1 57416U 23102N   24201.15038439  .00001557  00000-0  13035-3 0  9996
2 57416  43.0046 260.9025 0002223 288.0052  72.0548 15.02535937 56209
Source of the keplerian elements: AFSPC